Hourly Data Report for July 06, 2021

TORONTO CITY
ONTARIO
Current Station Operator: ECCC - MSC

43°40'00.000" N
79°24'00.000" W
112.50 m
6158355
71508
XTO

Download Data

Hourly Data (July 2021)
Hourly Data Report for July 6, 2021
TIME
LST
Temp Definition
°C
Dew Point Definition
°C
Rel Hum Definition
%
Precip. Amount Definition
mm

Wind Dir Definition
10's deg

Wind Spd Definition
km/h
Visibility Definition
km
Stn Press Definition
kPa
Hmdx Definition


Wind Chill Definition


Weather Definition


00:00 26.0 20.4 71 0.0       99.72 34   LegendNANA
01:00 24.9 20.3 75 0.0       99.72 33   LegendNANA
02:00 24.8 20.8 78 0.0       99.71 33   LegendNANA
03:00 24.8 20.4 76 0.0       99.74 33   LegendNANA
04:00 24.7 19.9 74 0.0       99.77 32   LegendNANA
05:00 24.6 19.8 74 0.0       99.82 32   LegendNANA
06:00 24.9 20.1 75 0.0       99.87 33   LegendNANA
07:00 26.2 20.5 71 0.0       99.90 34   LegendNANA
08:00 27.3 20.7 67 0.0       99.92 35   LegendNANA
09:00 27.8 19.8 62 0.0       99.92 35   LegendNANA
10:00 29.6 19.7 55 0.0       99.92 37   LegendNANA
11:00 31.0 19.0 49 0.0       99.96 38   LegendNANA
12:00 31.3 17.1 42 0.0       99.93 37   LegendNANA
13:00 31.8 16.4 39 0.0       99.91 37   LegendNANA
14:00 32.9 15.8 36 0.0       99.92 37   LegendNANA
15:00 32.9 16.2 37 0.0       99.90 38   LegendNANA
16:00 32.1 15.4 37 0.0       99.92 36   LegendNANA
17:00 31.8 16.7 41 0.0       99.90 37   LegendNANA
18:00 30.9 16.5 42 0.0       99.91 36   LegendNANA
19:00 30.0 15.9 43 0.0       99.98 35   LegendNANA
20:00 28.5 17.9 53 0.0       100.00 34   LegendNANA
21:00 26.6 17.8 58 0.0       100.04 32   LegendNANA
22:00 25.8 18.0 62 0.0       100.03 32   LegendNANA
23:00 25.5 17.7 62 0.0       100.04 31   LegendNANA

Notes on Data Quality.

Legend

  • E = Estimated
  • M = Missing
  • NA = Not Available*
  • [empty] = Indicates an unobserved value
Date modified: